Probability
0 0 0 0 0 0 0 0 0 0 0 0 0 0 0 0 0 0 0 0 0 0 0 0 0 0 0 0 0 0 0 0 0 0 0 0 0 0
0 0 0 0 0 0 0 0 0 0 0 0 0 0 0 0 0 0 0 0 0 0 0 0 0 0 0 0 0 0 0 0 0 0 0 0 0 0
0 0 0 0 0 0 0 0 0 0 0 0 0 0 0 0 0 0 0 0 0 0 0 0 0 0 0 0 0 0 0 0 0 0 0 0 0 0
0 0 0 0 0 0 0 0 0 0 0 0 0 0 0 0 0 0 0 0 0 0 0 0 0 0 0 0 0 0 0 0 0 0 0 0 0 0
0 0 0 0 0 0 0 0 0 0 0 0 0 0 0 0 0 0 0 0 0 0 0 0 0 0 0 0 0 0 0 0 0 0 0 0 0 0
0 0 0 0 0 0 0 0 0 0 0 0 0 0 0 0 0 0 0 0 0 0 0 0 0 0 0 0 0 0 0 0 0 0 0 0 0 0
0 0 0 0 0 0 0 0 0 0 0 0 0 0 0 0 0 0 0 0 0 0 0 0 0 0 0 0 0 0 0 0 0 0 0 0 0 0
0 0 0 0 0 0 0 0 0 0 0 0 0 0 0 0 0 0 0 0 0 0 0 0 0 0 0 0 0 0 0 0 0 0 0 0 0 0
0 0 0 0 0 0 0 0 0 0 0 0 0 0 0 0 0 0 0 0 0 0 0 0 0 0 0 0 0 0 0 0 0 0 0 0 0 0
0 0 0 0 0 0 0 0 0 0 0 0 0 0 0 0 0 0 0 0 0 0 0 0 0 0 0 0 0 0 0 0 0 0 0 0 0 0
0 0 0 0 0 0 0 0 0 0 0 0 0 0 0 0 0 0 0 0 0 0 0 0 0 0 0 0 0 0 0 0 0 0 0 0 0 0
0 0 0 0 0 0 0 0 0 0 0 0 0 0 0 0 0 0 0 0 0 0 0 0 0 0 0 0 0 0 0 0 0 0 0 0 0 0
0 0 0 0 0 0 0 0 0 0 0 0 0 0 0 0 0 0 0 0 0 0 0 0 0 0 0 0 0 0 0 0 0 0 0 0 0 0
0 0 0 0 0 0 0 0 0 0 0 0 0 0 0 0 0 0 0 0 0 0 0 0 0 0 0 0 0 0 0 0 0 0 0 0 0 0
0 0 0 0 0 0 0 0 0 0 0 0 0 0 0 0 0 0 0 0 0 0 0 0 0 0 0 0 0 0 0 0 0 0 0 0 0 0
0 0 0 0 0 0 0 0 0 0 0 0 0 0 0 0 0 0 0 0 0 0 0 0 0 0 0 0 0 0 0 0 0 0 0 0 0 0
0 0 0 0 0 0 0 0 0 0 0 0 0 0 0 0 0 0 0 0 0 0 0 0 0 0 0 0 0 0 0 0 0 0 0 0 0 0
0 0 0 0 0 0 0 0 0 0 0 0 0 0 0 0 0 0 0 0 0 0 0 0 0 0 0 0 0 0 0 0 0 0 0 0 0 0
0 0 0 0 0 0 0 0 0 0 0 0 0 0 0 0 0 0 0 0 0 0 0 0 0 0 0 0 0 0 0 0 0 0 0 0 0 0
0 0 0 0 0 0 0 0 0 0 0 0 0 0 0 0 0 0 0 0 0 0 0 0 0 0 0 0 0 0 0 0 0 0 0 0 0 0
0 0 0 0 0 0 0 0 0 0 0 0 0 0 0 0 0 0 0 0 0 0 0 0 0 0 0 0 0 0 0 0 0 0 0 0 0 0
0 0 0 0 0 0 0 0 0 0 0 0 0 0 0 0 0 0 0 0 0 0 0 0 0 0 0 0 0 0 0 0 0 0 0 0 0 0
0 0 0 0 0 0 0 0 0 0 0 0 0 0 0 0 0 0 0 0 0 0 0 0 0 0 0 0 0 0 0 0 0 0 0 0 0 0
Wind_Speed
2 2 1 1 1 0 1 1 1 1 2 2 1 1 2 2 5 3 4 9 11 12 13 13 13 14 15 15 16 16 17 18 18 19 19 19 20 19
2 2 1 1 1 1 0 0 1 1 2 2 2 3 3 4 6 4 4 10 10 12 13 13 13 14 14 15 16 16 17 18 18 19 19 19 19 19
2 2 2 1 1 0 0 0 1 1 2 3 2 2 3 4 5 4 4 4 5 11 13 14 14 14 14 15 15 16 17 17 18 19 19 19 19 19
2 2 2 1 1 1 1 0 1 1 1 3 3 3 3 4 4 5 5 5 5 10 13 14 14 14 15 15 16 16 17 17 17 18 18 19 19 19
2 2 1 1 1 0 0 0 1 1 1 1 3 3 3 3 4 5 6 5 6 7 11 12 14 15 15 15 15 16 16 16 17 17 18 18 18 18
2 2 2 2 1 1 0 0 0 0 1 1 2 2 3 3 3 4 6 5 6 6 7 9 12 14 14 15 15 15 16 16 17 17 17 17 17 18
2 2 2 2 1 0 0 1 0 0 1 1 2 2 3 3 4 3 5 6 6 4 5 6 6 5 7 11 13 15 16 16 16 17 17 17 17 17
2 1 1 1 1 0 1 1 1 1 1 1 2 3 4 3 3 4 4 5 5 4 6 7 5 5 5 5 12 16 15 16 17 17 17 17 17 18
2 1 0 1 1 0 1 2 2 2 2 1 2 3 3 3 3 4 4 4 5 5 5 6 5 6 6 8 15 15 15 16 17 17 17 18 18 18
1 2 1 1 1 1 1 1 1 1 2 1 1 3 3 2 2 3 4 5 5 3 3 4 5 6 7 6 12 15 16 17 17 18 18 18 18 18
1 1 2 1 1 2 1 1 2 2 4 5 5 4 6 6 5 2 3 4 5 4 2 2 4 6 6 4 7 14 16 16 17 18 18 18 18 17
1 1 2 2 2 2 1 1 1 2 2 3 4 4 4 4 6 2 2 3 3 4 3 4 4 5 6 4 5 7 8 13 16 17 18 18 18 11
1 1 1 1 2 2 1 0 1 2 1 2 2 2 3 2 2 2 2 1 3 3 3 3 3 3 4 6 6 5 6 7 8 10 13 17 18 14
1 0 1 2 2 2 2 2 3 3 1 1 2 2 3 3 3 3 3 2 2 4 4 3 3 4 5 6 6 6 7 7 6 7 7 13 14 16
1 1 1 2 2 2 2 3 3 1 1 1 2 2 2 3 3 3 3 3 4 3 3 3 3 4 4 5 6 6 7 7 6 6 7 7 8 8
1 2 2 3 2 2 2 2 1 1 1 1 2 2 2 2 3 3 3 4 4 4 3 3 3 4 4 5 5 6 6 5 7 8 7 7 7 6
1 1 1 1 1 1 1 1 1 2 2 2 2 2 3 3 3 3 3 3 3 4 5 5 4 3 4 4 4 5 5 5 6 7 8 8 7 6
1 1 1 0 1 1 1 1 1 1 1 2 2 2 3 3 3 3 3 3 4 4 5 5 6 5 4 2 2 3 4 5 6 6 6 6 7 7
1 1 1 0 0 0 1 1 1 1 1 2 2 2 2 3 3 3 3 4 4 4 4 4 5 5 6 6 5 3 4 6 6 6 5 5 6 7
1 1 0 0 0 0 0 1 1 1 1 1 2 2 2 2 3 3 3 4 4 4 5 4 4 4 4 4 5 6 7 5 5 6 6 5 4 7
1 1 0 0 0 1 1 1 1 1 1 1 2 2 2 2 2 3 3 5 4 4 5 5 5 7 4 3 3 5 5 6 7 5 5 5 5 5
1 0 0 0 0 0 1 1 1 1 1 1 2 2 2 2 2 3 3 3 3 4 5 4 4 4 3 3 4 5 6 7 7 8 7 5 4 5
0 0 0 0 0 0 0 1 1 1 1 1 2 2 2 2 2 2 3 3 3 4 4 4 4 4 3 3 4 4 6 6 5 6 6 10 10 8
Wind_Direction
141 140 138 110 75 70 120 149 166 269 278 285 323 320 333 331 327 319 307 318 325 326 325 325 325 325 325 326 326 326 326 325 323 323 323 320 319 321
144 142 143 150 119 84 140 201 175 198 262 280 296 312 324 329 321 315 305 323 323 325 325 325 325 325 326 326 325 326 326 325 325 325 324 324 324 323
143 150 160 156 138 135 130 217 240 201 255 290 298 317 319 316 318 315 308 308 314 324 327 326 324 326 327 328 327 327 327 326 326 326 326 326 326 325
155 151 160 140 153 179 190 227 255 236 231 287 305 322 316 313 315 318 323 324 316 321 326 326 326 327 329 329 328 328 328 329 328 328 328 327 327 327
151 151 160 141 172 223 232 257 272 306 286 282 304 316 314 321 324 322 323 319 322 321 324 326 328 328 329 329 329 329 330 329 329 329 330 330 329 328
146 156 156 151 184 207 221 264 284 322 320 301 300 309 313 320 327 328 328 329 324 321 323 328 327 328 328 329 330 331 330 330 331 332 332 332 331 330
144 148 145 148 176 197 198 224 231 251 291 295 305 317 316 328 325 322 325 324 315 318 326 322 322 321 325 326 330 332 331 332 333 334 334 335 335 333
144 129 149 170 168 322 341 349 353 245 254 266 294 300 305 310 314 325 328 329 320 332 331 317 323 320 321 321 329 333 334 338 340 340 340 339 338 336
147 143 144 116 104 149 337 10 356 332 311 275 274 283 292 302 312 317 320 313 300 309 322 308 317 316 320 326 332 336 340 343 343 342 342 340 340 339
141 143 151 141 105 71 47 21 348 342 334 331 272 282 295 297 291 299 300 303 295 301 324 305 313 315 320 319 332 343 344 343 343 344 344 343 341 340
113 133 132 125 77 52 59 36 6 355 1 357 345 339 341 347 353 350 338 335 323 317 333 320 313 318 312 310 328 340 340 340 342 343 344 344 344 341
75 75 97 89 59 52 74 86 344 328 343 350 356 355 352 354 359 354 322 322 323 317 337 337 320 333 322 311 321 332 335 335 339 340 342 344 345 342
110 81 62 61 40 36 39 61 324 341 339 343 345 347 350 350 341 332 320 300 304 296 311 331 316 323 307 309 314 323 331 332 334 334 337 343 345 347
105 92 46 32 28 30 28 22 19 19 12 356 350 346 343 340 332 329 329 318 289 284 294 308 299 307 314 313 310 319 327 332 334 335 338 340 342 342
79 82 53 39 33 39 41 36 35 32 17 7 346 336 330 321 323 332 334 329 318 308 312 307 304 306 302 303 306 314 321 326 335 339 339 341 339 338
74 67 57 54 46 38 39 40 31 27 19 350 331 330 329 330 337 341 338 338 338 333 331 327 321 320 316 301 300 308 319 320 329 334 335 335 337 341
88 63 49 47 46 36 36 26 17 18 16 352 347 341 338 342 340 343 340 340 343 336 336 335 324 307 292 294 302 308 319 323 328 335 337 338 339 344
89 96 82 67 50 30 20 5 3 5 0 354 349 342 342 344 342 340 344 344 339 335 334 334 337 338 337 331 297 309 327 328 330 334 338 339 338 343
86 95 88 77 44 24 3 355 346 347 352 352 345 338 338 341 339 338 342 342 337 333 333 337 343 350 352 347 333 343 336 331 333 335 339 337 331 331
51 81 91 76 32 348 331 337 347 347 350 353 344 335 334 333 332 334 336 334 332 333 335 341 347 345 338 324 316 320 330 329 334 336 335 333 326 321
50 39 56 66 20 349 341 339 338 336 345 347 336 328 326 327 327 329 330 334 338 334 335 337 331 330 318 316 323 330 331 334 333 331 335 336 339 348
71 43 6 8 341 347 356 336 330 342 352 345 329 325 327 328 326 327 327 329 331 330 327 325 331 340 348 348 338 333 334 338 344 348 352 354 349 351
93 14 336 338 341 0 7 337 335 346 348 333 327 327 328 328 325 321 322 326 331 334 334 334 341 346 347 342 338 338 342 345 348 355 357 358 0 354